Time,TemperatureF,DewpointF,PressureIn,WindDirection,WindDirectionDegrees,WindSpeedMPH,WindSpeedGustMPH,Humidity,HourlyPrecipIn,Conditions,Clouds,dailyrainin,SoftwareType,DateUTC
2013-03-24 00:00:00,36.7,22.5,29.92,West,263,4.0,7.0,56,0.00,,,0.00,meteohub,2013-03-24 04:00:00,
2013-03-24 00:02:00,36.5,22.3,29.92,West,263,3.0,7.0,56,0.00,,,0.00,meteohub,2013-03-24 04:02:00,
2013-03-24 00:07:00,36.3,22.5,29.92,West,263,5.0,6.0,57,0.00,,,0.00,meteohub,2013-03-24 04:07:00,
2013-03-24 00:12:00,36.1,22.5,29.92,West,263,3.0,6.0,57,0.00,,,0.00,meteohub,2013-03-24 04:12:00,
2013-03-24 00:17:00,36.0,22.6,29.93,West,263,6.0,6.0,58,0.00,,,0.00,meteohub,2013-03-24 04:17:00,
2013-03-24 00:22:00,36.0,22.3,29.93,West,263,4.0,6.0,57,0.00,,,0.00,meteohub,2013-03-24 04:22:00,
2013-03-24 00:27:00,36.0,22.3,29.94,West,263,4.0,6.0,57,0.00,,,0.00,meteohub,2013-03-24 04:27:00,
2013-03-24 00:32:00,36.0,22.3,29.94,West,263,2.0,6.0,57,0.00,,,0.00,meteohub,2013-03-24 04:32:00,
2013-03-24 00:37:00,36.0,21.7,29.93,West,263,1.0,6.0,56,0.00,,,0.00,meteohub,2013-03-24 04:37:00,
2013-03-24 00:42:00,35.8,22.1,29.93,West,263,3.0,8.0,57,0.00,,,0.00,meteohub,2013-03-24 04:42:00,
2013-03-24 00:47:00,35.6,21.9,29.93,West,263,3.0,8.0,57,0.00,,,0.00,meteohub,2013-03-24 04:47:00,
2013-03-24 00:52:00,35.4,21.7,29.93,West,263,3.0,8.0,57,0.00,,,0.00,meteohub,2013-03-24 04:52:00,
2013-03-24 00:57:00,35.6,21.4,29.93,West,263,3.0,8.0,56,0.00,,,0.00,meteohub,2013-03-24 04:57:00,
2013-03-24 01:02:00,35.8,21.2,29.93,WNW,290,7.0,7.0,55,0.00,,,0.00,meteohub,2013-03-24 05:02:00,
2013-03-24 01:07:00,36.0,21.0,29.93,WNW,289,6.0,7.0,54,0.00,,,0.00,meteohub,2013-03-24 05:07:00,
2013-03-24 01:12:00,36.1,20.7,29.92,WNW,293,10.0,10.0,53,0.00,,,0.00,meteohub,2013-03-24 05:12:00,
2013-03-24 01:17:00,36.3,20.8,29.93,WNW,298,8.0,8.0,53,0.00,,,0.00,meteohub,2013-03-24 05:17:00,
2013-03-24 01:22:00,36.3,20.3,29.93,WNW,298,3.0,7.0,52,0.00,,,0.00,meteohub,2013-03-24 05:22:00,
2013-03-24 01:27:00,36.1,20.3,29.94,WNW,298,4.0,14.0,52,0.00,,,0.00,meteohub,2013-03-24 05:27:00,
2013-03-24 01:32:00,36.1,20.3,29.93,WNW,298,5.0,14.0,52,0.00,,,0.00,meteohub,2013-03-24 05:32:00,
2013-03-24 01:37:00,36.1,20.3,29.93,WNW,286,6.0,14.0,52,0.00,,,0.00,meteohub,2013-03-24 05:37:00,
2013-03-24 01:42:00,36.1,20.3,29.93,WNW,286,8.0,14.0,52,0.00,,,0.00,meteohub,2013-03-24 05:42:00,
2013-03-24 01:47:00,36.1,20.3,29.93,WNW,287,4.0,11.0,52,0.00,,,0.00,meteohub,2013-03-24 05:47:00,
2013-03-24 01:52:00,36.1,20.3,29.93,WNW,285,6.0,11.0,52,0.00,,,0.00,meteohub,2013-03-24 05:52:00,
2013-03-24 01:57:00,36.1,20.3,29.93,WNW,285,2.0,11.0,52,0.00,,,0.00,meteohub,2013-03-24 05:57:00,
2013-03-24 02:02:00,36.0,20.1,29.93,WNW,285,2.0,11.0,52,0.00,,,0.00,meteohub,2013-03-24 06:02:00,
2013-03-24 02:07:00,35.8,20.3,29.93,WNW,285,2.0,9.0,53,0.00,,,0.00,meteohub,2013-03-24 06:07:00,
2013-03-24 02:12:00,35.8,20.3,29.92,WNW,285,2.0,9.0,53,0.00,,,0.00,meteohub,2013-03-24 06:12:00,
2013-03-24 02:17:00,35.4,19.9,29.92,WNW,285,2.0,9.0,53,0.00,,,0.00,meteohub,2013-03-24 06:17:00,
2013-03-24 02:22:00,35.2,20.3,29.92,WNW,285,3.0,9.0,54,0.00,,,0.00,meteohub,2013-03-24 06:22:00,
2013-03-24 02:27:00,35.1,20.1,29.92,WNW,285,3.0,5.0,54,0.00,,,0.00,meteohub,2013-03-24 06:27:00,
2013-03-24 02:32:00,34.9,20.3,29.92,WNW,285,1.0,5.0,55,0.00,,,0.00,meteohub,2013-03-24 06:32:00,
2013-03-24 02:37:00,34.5,20.5,29.91,WNW,285,0.0,5.0,56,0.00,,,0.00,meteohub,2013-03-24 06:37:00,
2013-03-24 02:42:00,34.3,20.3,29.91,WNW,285,3.0,5.0,56,0.00,,,0.00,meteohub,2013-03-24 06:42:00,
2013-03-24 02:47:00,34.3,20.7,29.91,WNW,285,5.0,5.0,57,0.00,,,0.00,meteohub,2013-03-24 06:47:00,
2013-03-24 02:52:00,34.3,20.7,29.91,WNW,285,5.0,5.0,57,0.00,,,0.00,meteohub,2013-03-24 06:52:00,
2013-03-24 02:57:00,34.3,20.7,29.90,WNW,285,4.0,4.0,57,0.00,,,0.00,meteohub,2013-03-24 06:57:00,
2013-03-24 03:02:00,34.2,20.8,29.90,WNW,285,2.0,4.0,58,0.00,,,0.00,meteohub,2013-03-24 07:02:00,
2013-03-24 03:07:00,34.0,20.8,29.90,WNW,285,3.0,7.0,58,0.00,,,0.00,meteohub,2013-03-24 07:07:00,
2013-03-24 03:12:00,34.0,21.2,29.90,WNW,285,3.0,7.0,59,0.00,,,0.00,meteohub,2013-03-24 07:12:00,
2013-03-24 03:17:00,33.8,21.0,29.90,WNW,285,5.0,7.0,59,0.00,,,0.00,meteohub,2013-03-24 07:17:00,
2013-03-24 03:23:00,33.6,20.8,29.89,WNW,285,4.0,6.0,59,0.00,,,0.00,meteohub,2013-03-24 07:23:00,
2013-03-24 03:28:00,33.4,20.7,29.89,WNW,285,7.0,7.0,59,0.00,,,0.00,meteohub,2013-03-24 07:28:00,
2013-03-24 03:33:00,33.4,21.0,29.89,WNW,285,3.0,6.0,60,0.00,,,0.00,meteohub,2013-03-24 07:33:00,
2013-03-24 03:38:00,33.4,21.0,29.88,WNW,285,2.0,6.0,60,0.00,,,0.00,meteohub,2013-03-24 07:38:00,
2013-03-24 03:43:00,33.3,20.8,29.88,WNW,285,3.0,6.0,60,0.00,,,0.00,meteohub,2013-03-24 07:43:00,
2013-03-24 03:48:00,33.1,21.0,29.89,WNW,285,4.0,7.0,61,0.00,,,0.00,meteohub,2013-03-24 07:48:00,
2013-03-24 03:53:00,32.9,20.8,29.89,WNW,284,6.0,7.0,61,0.00,,,0.00,meteohub,2013-03-24 07:53:00,
2013-03-24 03:58:00,32.9,20.8,29.89,WNW,282,8.0,8.0,61,0.00,,,0.00,meteohub,2013-03-24 07:58:00,
2013-03-24 04:03:00,32.7,21.2,29.89,WNW,282,4.0,7.0,62,0.00,,,0.00,meteohub,2013-03-24 08:03:00,
2013-03-24 04:08:00,32.7,21.2,29.89,WNW,282,5.0,10.0,62,0.00,,,0.00,meteohub,2013-03-24 08:08:00,
2013-03-24 04:13:00,32.7,21.2,29.90,WNW,282,4.0,10.0,62,0.00,,,0.00,meteohub,2013-03-24 08:13:00,
2013-03-24 04:18:00,33.1,22.3,29.90,West,279,6.0,10.0,64,0.00,,,0.00,meteohub,2013-03-24 08:18:00,
2013-03-24 04:23:00,33.3,22.5,29.90,West,278,5.0,10.0,64,0.00,,,0.00,meteohub,2013-03-24 08:23:00,
2013-03-24 04:28:00,33.4,22.3,29.90,West,277,6.0,10.0,63,0.00,,,0.00,meteohub,2013-03-24 08:28:00,
2013-03-24 04:33:00,33.6,21.9,29.90,West,276,5.0,10.0,62,0.00,,,0.00,meteohub,2013-03-24 08:33:00,
2013-03-24 04:38:00,33.6,21.9,29.90,West,276,4.0,10.0,62,0.00,,,0.00,meteohub,2013-03-24 08:38:00,
2013-03-24 04:43:00,33.4,21.7,29.90,West,276,5.0,10.0,62,0.00,,,0.00,meteohub,2013-03-24 08:43:00,
2013-03-24 04:48:00,33.4,21.7,29.90,West,276,5.0,9.0,62,0.00,,,0.00,meteohub,2013-03-24 08:48:00,
2013-03-24 04:53:00,33.3,21.7,29.91,West,276,6.0,9.0,62,0.00,,,0.00,meteohub,2013-03-24 08:53:00,
2013-03-24 04:58:00,33.1,21.6,29.91,West,276,7.0,9.0,62,0.00,,,0.00,meteohub,2013-03-24 08:58:00,
2013-03-24 05:03:00,32.7,21.6,29.91,West,276,5.0,9.0,63,0.00,,,0.00,meteohub,2013-03-24 09:03:00,
2013-03-24 05:08:00,32.7,21.6,29.91,West,276,4.0,9.0,63,0.00,,,0.00,meteohub,2013-03-24 09:08:00,
2013-03-24 05:13:00,32.7,21.6,29.91,West,276,3.0,9.0,63,0.00,,,0.00,meteohub,2013-03-24 09:13:00,
2013-03-24 05:18:00,32.5,21.7,29.91,West,276,6.0,9.0,64,0.00,,,0.00,meteohub,2013-03-24 09:18:00,
2013-03-24 05:23:00,32.5,21.7,29.91,West,276,5.0,9.0,64,0.00,,,0.00,meteohub,2013-03-24 09:23:00,
2013-03-24 05:28:00,32.4,21.6,29.91,West,276,4.0,9.0,64,0.00,,,0.00,meteohub,2013-03-24 09:28:00,
2013-03-24 05:33:00,32.5,21.7,29.91,West,276,3.0,9.0,64,0.00,,,0.00,meteohub,2013-03-24 09:33:00,
2013-03-24 05:38:00,32.4,21.9,29.91,West,275,4.0,9.0,65,0.00,,,0.00,meteohub,2013-03-24 09:38:00,
2013-03-24 05:43:00,32.4,21.9,29.92,West,275,3.0,9.0,65,0.00,,,0.00,meteohub,2013-03-24 09:43:00,
2013-03-24 05:48:00,32.4,22.3,29.92,West,275,4.0,9.0,66,0.00,,,0.00,meteohub,2013-03-24 09:48:00,
2013-03-24 05:53:00,32.2,22.1,29.91,West,275,6.0,9.0,66,0.00,,,0.00,meteohub,2013-03-24 09:53:00,
2013-03-24 05:58:00,32.2,22.1,29.92,West,275,6.0,9.0,66,0.00,,,0.00,meteohub,2013-03-24 09:58:00,
2013-03-24 06:03:00,32.2,22.1,29.92,West,262,8.0,9.0,66,0.00,,,0.00,meteohub,2013-03-24 10:03:00,
2013-03-24 06:08:00,32.5,22.5,29.92,West,259,6.0,9.0,66,0.00,,,0.00,meteohub,2013-03-24 10:08:00,
2013-03-24 06:14:00,32.5,22.5,29.93,WSW,257,8.0,9.0,66,0.00,,,0.00,meteohub,2013-03-24 10:14:00,
2013-03-24 06:19:00,32.5,22.5,29.93,WSW,254,8.0,9.0,66,0.00,,,0.00,meteohub,2013-03-24 10:19:00,
2013-03-24 06:23:00,32.5,22.5,29.93,West,259,10.0,15.0,66,0.00,,,0.00,meteohub,2013-03-24 10:23:00,
2013-03-24 06:29:00,32.5,22.5,29.93,WSW,258,7.0,15.0,66,0.00,,,0.00,meteohub,2013-03-24 10:29:00,
2013-03-24 06:34:00,32.5,22.5,29.93,West,259,8.0,15.0,66,0.00,,,0.00,meteohub,2013-03-24 10:34:00,
2013-03-24 06:39:00,32.5,22.5,29.93,West,261,5.0,15.0,66,0.00,,,0.00,meteohub,2013-03-24 10:39:00,
2013-03-24 06:44:00,32.4,22.6,29.92,West,260,7.0,15.0,67,0.00,,,0.00,meteohub,2013-03-24 10:44:00,
2013-03-24 06:49:00,32.4,22.6,29.92,West,260,3.0,15.0,67,0.00,,,0.00,meteohub,2013-03-24 10:49:00,
2013-03-24 06:54:00,32.2,22.5,29.92,West,260,2.0,15.0,67,0.00,,,0.00,meteohub,2013-03-24 10:54:00,
2013-03-24 06:59:00,32.2,22.8,29.92,West,260,1.0,15.0,68,0.00,,,0.00,meteohub,2013-03-24 10:59:00,
2013-03-24 07:04:00,32.2,22.8,29.93,West,260,2.0,9.0,68,0.00,,,0.00,meteohub,2013-03-24 11:04:00,
2013-03-24 07:09:00,32.2,22.8,29.92,West,260,6.0,9.0,68,0.00,,,0.00,meteohub,2013-03-24 11:09:00,
2013-03-24 07:14:00,32.2,23.2,29.92,West,260,4.0,9.0,69,0.00,,,0.00,meteohub,2013-03-24 11:14:00,
2013-03-24 07:19:00,32.4,23.4,29.93,West,259,5.0,9.0,69,0.00,,,0.00,meteohub,2013-03-24 11:19:00,
2013-03-24 07:24:00,32.7,23.7,29.93,WSW,257,3.0,9.0,69,0.00,,,0.00,meteohub,2013-03-24 11:24:00,
2013-03-24 07:29:00,33.1,24.1,29.94,WSW,255,7.0,9.0,69,0.00,,,0.00,meteohub,2013-03-24 11:29:00,
2013-03-24 07:34:00,33.3,23.9,29.94,WSW,254,4.0,9.0,68,0.00,,,0.00,meteohub,2013-03-24 11:34:00,
2013-03-24 07:39:00,33.4,24.1,29.94,WSW,254,7.0,9.0,68,0.00,,,0.00,meteohub,2013-03-24 11:39:00,
2013-03-24 07:44:00,34.0,24.8,29.94,WSW,251,5.0,10.0,69,0.00,,,0.00,meteohub,2013-03-24 11:44:00,
2013-03-24 07:49:00,34.3,24.8,29.94,WSW,249,8.0,10.0,68,0.00,,,0.00,meteohub,2013-03-24 11:49:00,
2013-03-24 07:54:00,34.5,24.6,29.94,WSW,250,5.0,10.0,67,0.00,,,0.00,meteohub,2013-03-24 11:54:00,
2013-03-24 07:59:00,34.9,24.6,29.94,WSW,255,10.0,10.0,66,0.00,,,0.00,meteohub,2013-03-24 11:59:00,
2013-03-24 08:04:00,35.1,24.4,29.94,WSW,250,6.0,10.0,65,0.00,,,0.00,meteohub,2013-03-24 12:04:00,
2013-03-24 08:09:00,35.2,24.6,29.94,WSW,247,9.0,10.0,65,0.00,,,0.00,meteohub,2013-03-24 12:09:00,
2013-03-24 08:14:00,35.6,24.6,29.94,WSW,254,7.0,10.0,64,0.00,,,0.00,meteohub,2013-03-24 12:14:00,
2013-03-24 08:19:00,35.8,24.4,29.94,West,265,6.0,15.0,63,0.00,,,0.00,meteohub,2013-03-24 12:19:00,
2013-03-24 08:24:00,36.0,24.6,29.94,West,273,8.0,15.0,63,0.00,,,0.00,meteohub,2013-03-24 12:24:00,
2013-03-24 08:29:00,36.3,25.0,29.94,West,266,11.0,15.0,63,0.00,,,0.00,meteohub,2013-03-24 12:29:00,
2013-03-24 08:34:00,36.7,25.0,29.95,West,260,9.0,15.0,62,0.00,,,0.00,meteohub,2013-03-24 12:34:00,
2013-03-24 08:39:00,36.9,24.6,29.95,WSW,256,7.0,15.0,61,0.00,,,0.00,meteohub,2013-03-24 12:39:00,
2013-03-24 08:44:00,37.2,24.6,29.95,WSW,253,6.0,15.0,60,0.00,,,0.00,meteohub,2013-03-24 12:44:00,
2013-03-24 08:49:00,37.9,25.0,29.95,West,265,9.0,15.0,59,0.00,,,0.00,meteohub,2013-03-24 12:49:00,
2013-03-24 08:54:00,38.3,24.4,29.95,WSW,255,7.0,14.0,57,0.00,,,0.00,meteohub,2013-03-24 12:54:00,
2013-03-24 08:59:00,38.7,24.3,29.95,West,277,6.0,14.0,56,0.00,,,0.00,meteohub,2013-03-24 12:59:00,
2013-03-24 09:04:00,38.8,24.1,29.95,West,270,17.0,17.0,55,0.00,,,0.00,meteohub,2013-03-24 13:04:00,
2013-03-24 09:09:00,38.7,23.9,29.94,West,265,9.0,14.0,55,0.00,,,0.00,meteohub,2013-03-24 13:09:00,
2013-03-24 09:14:00,38.8,24.4,29.94,WNW,288,12.0,14.0,56,0.00,,,0.00,meteohub,2013-03-24 13:14:00,
2013-03-24 09:20:00,38.8,24.1,29.94,West,265,14.0,19.0,55,0.00,,,0.00,meteohub,2013-03-24 13:20:00,
2013-03-24 09:25:00,38.8,24.4,29.94,West,260,11.0,19.0,56,0.00,,,0.00,meteohub,2013-03-24 13:25:00,
2013-03-24 09:30:00,39.2,24.8,29.93,WNW,287,15.0,19.0,56,0.00,,,0.00,meteohub,2013-03-24 13:30:00,
2013-03-24 09:35:00,39.6,23.9,29.94,WNW,284,12.0,19.0,53,0.00,,,0.00,meteohub,2013-03-24 13:35:00,
2013-03-24 09:40:00,39.6,23.0,29.94,West,280,17.0,19.0,51,0.00,,,0.00,meteohub,2013-03-24 13:40:00,
2013-03-24 09:45:00,40.3,23.2,29.93,WNW,295,18.0,19.0,50,0.00,,,0.00,meteohub,2013-03-24 13:45:00,
2013-03-24 09:50:00,39.9,22.8,29.93,West,269,21.0,21.0,50,0.00,,,0.00,meteohub,2013-03-24 13:50:00,
2013-03-24 09:55:00,39.7,23.2,29.93,NW,324,16.0,25.0,51,0.00,,,0.00,meteohub,2013-03-24 13:55:00,
2013-03-24 10:00:00,39.7,22.6,29.93,WNW,303,11.0,25.0,50,0.00,,,0.00,meteohub,2013-03-24 14:00:00,
2013-03-24 10:05:00,39.7,22.6,29.92,WNW,297,23.0,25.0,50,0.00,,,0.00,meteohub,2013-03-24 14:05:00,
2013-03-24 10:10:00,39.6,23.4,29.92,WNW,282,10.0,25.0,52,0.00,,,0.00,meteohub,2013-03-24 14:10:00,
2013-03-24 10:15:00,39.7,22.6,29.93,NW,304,7.0,25.0,50,0.00,,,0.00,meteohub,2013-03-24 14:15:00,
2013-03-24 10:20:00,39.7,22.6,29.92,WNW,290,19.0,26.0,50,0.00,,,0.00,meteohub,2013-03-24 14:20:00,
2013-03-24 10:25:00,39.6,22.5,29.92,West,281,12.0,26.0,50,0.00,,,0.00,meteohub,2013-03-24 14:25:00,
2013-03-24 10:30:00,39.7,23.2,29.93,WNW,294,10.0,26.0,51,0.00,,,0.00,meteohub,2013-03-24 14:30:00,
2013-03-24 10:35:00,40.3,22.6,29.92,West,271,16.0,26.0,49,0.00,,,0.00,meteohub,2013-03-24 14:35:00,
2013-03-24 10:40:00,40.3,23.5,29.92,WNW,295,11.0,26.0,51,0.00,,,0.00,meteohub,2013-03-24 14:40:00,
2013-03-24 10:45:00,40.3,23.2,29.92,West,278,13.0,26.0,50,0.00,,,0.00,meteohub,2013-03-24 14:45:00,
2013-03-24 10:50:00,40.5,23.4,29.91,WNW,294,8.0,26.0,50,0.00,,,0.00,meteohub,2013-03-24 14:50:00,
2013-03-24 10:55:00,41.2,23.5,29.91,WNW,285,12.0,28.0,49,0.00,,,0.00,meteohub,2013-03-24 14:55:00,
2013-03-24 11:00:00,41.2,23.5,29.91,NNW,333,13.0,28.0,49,0.00,,,0.00,meteohub,2013-03-24 15:00:00,
2013-03-24 11:05:00,41.4,23.2,29.91,West,265,8.0,28.0,48,0.00,,,0.00,meteohub,2013-03-24 15:05:00,
2013-03-24 11:10:00,40.8,23.2,29.91,West,271,16.0,28.0,49,0.00,,,0.00,meteohub,2013-03-24 15:10:00,
2013-03-24 11:15:00,41.2,23.5,29.91,WNW,286,7.0,28.0,49,0.00,,,0.00,meteohub,2013-03-24 15:15:00,
2013-03-24 11:20:00,41.2,23.0,29.90,West,275,7.0,28.0,48,0.00,,,0.00,meteohub,2013-03-24 15:20:00,
2013-03-24 11:25:00,41.0,22.8,29.89,WNW,285,17.0,21.0,48,0.00,,,0.00,meteohub,2013-03-24 15:25:00,
2013-03-24 11:30:00,41.2,23.5,29.89,West,281,11.0,21.0,49,0.00,,,0.00,meteohub,2013-03-24 15:30:00,
2013-03-24 11:35:00,41.4,22.6,29.89,WNW,292,14.0,21.0,47,0.00,,,0.00,meteohub,2013-03-24 15:35:00,
2013-03-24 11:40:00,41.4,23.2,29.88,West,274,11.0,21.0,48,0.00,,,0.00,meteohub,2013-03-24 15:40:00,
2013-03-24 11:45:00,42.1,24.3,29.88,WNW,285,17.0,21.0,49,0.00,,,0.00,meteohub,2013-03-24 15:45:00,
2013-03-24 11:50:00,41.4,23.2,29.88,WNW,300,9.0,21.0,48,0.00,,,0.00,meteohub,2013-03-24 15:50:00,
2013-03-24 11:55:00,41.5,23.4,29.88,West,277,7.0,22.0,48,0.00,,,0.00,meteohub,2013-03-24 15:55:00,
2013-03-24 12:00:00,42.1,23.4,29.88,NW,311,10.0,22.0,47,0.00,,,0.00,meteohub,2013-03-24 16:00:00,
2013-03-24 12:05:00,42.6,23.7,29.88,WNW,300,13.0,22.0,47,0.00,,,0.00,meteohub,2013-03-24 16:05:00,
2013-03-24 12:10:00,42.4,23.2,29.88,WNW,297,17.0,22.0,46,0.00,,,0.00,meteohub,2013-03-24 16:10:00,
2013-03-24 12:15:00,42.4,24.1,29.87,NW,310,15.0,22.0,48,0.00,,,0.00,meteohub,2013-03-24 16:15:00,
2013-03-24 12:20:00,42.4,23.7,29.87,WNW,290,8.0,22.0,47,0.00,,,0.00,meteohub,2013-03-24 16:20:00,
2013-03-24 12:26:00,42.6,23.4,29.86,WNW,292,6.0,22.0,46,0.00,,,0.00,meteohub,2013-03-24 16:26:00,
2013-03-24 12:31:00,43.0,23.5,29.86,NW,321,7.0,20.0,46,0.00,,,0.00,meteohub,2013-03-24 16:31:00,
2013-03-24 12:36:00,42.8,23.4,29.85,NNW,328,15.0,20.0,46,0.00,,,0.00,meteohub,2013-03-24 16:36:00,
2013-03-24 12:41:00,42.4,23.2,29.85,WNW,291,16.0,20.0,46,0.00,,,0.00,meteohub,2013-03-24 16:41:00,
2013-03-24 12:47:00,43.2,23.7,29.84,WNW,299,15.0,20.0,46,0.00,,,0.00,meteohub,2013-03-24 16:47:00,
2013-03-24 12:52:00,43.2,24.3,29.84,WNW,297,7.0,20.0,47,0.00,,,0.00,meteohub,2013-03-24 16:52:00,
2013-03-24 12:57:00,43.3,23.9,29.83,NW,309,11.0,20.0,46,0.00,,,0.00,meteohub,2013-03-24 16:57:00,
2013-03-24 13:02:00,43.3,23.9,29.84,NW,312,11.0,20.0,46,0.00,,,0.00,meteohub,2013-03-24 17:02:00,
2013-03-24 13:07:00,43.5,23.5,29.84,WNW,286,6.0,20.0,45,0.00,,,0.00,meteohub,2013-03-24 17:07:00,
2013-03-24 13:12:00,43.5,23.5,29.85,NNW,333,7.0,23.0,45,0.00,,,0.00,meteohub,2013-03-24 17:12:00,
2013-03-24 13:17:00,43.3,23.9,29.85,WNW,288,11.0,23.0,46,0.00,,,0.00,meteohub,2013-03-24 17:17:00,
2013-03-24 13:22:00,44.1,24.6,29.86,NNW,340,12.0,23.0,46,0.00,,,0.00,meteohub,2013-03-24 17:22:00,
2013-03-24 13:27:00,44.1,24.1,29.86,West,277,11.0,23.0,45,0.00,,,0.00,meteohub,2013-03-24 17:27:00,
2013-03-24 13:32:00,44.1,24.1,29.86,NW,313,10.0,23.0,45,0.00,,,0.00,meteohub,2013-03-24 17:32:00,
2013-03-24 13:37:00,44.1,24.6,29.86,NW,317,15.0,23.0,46,0.00,,,0.00,meteohub,2013-03-24 17:37:00,
2013-03-24 13:42:00,44.1,23.5,29.86,NW,315,7.0,23.0,44,0.00,,,0.00,meteohub,2013-03-24 17:42:00,
2013-03-24 13:47:00,43.9,23.9,29.86,NW,313,4.0,23.0,45,0.00,,,0.00,meteohub,2013-03-24 17:47:00,
2013-03-24 13:52:00,44.1,24.6,29.86,NW,323,9.0,19.0,46,0.00,,,0.00,meteohub,2013-03-24 17:52:00,
2013-03-24 13:57:00,44.4,25.0,29.85,NNW,333,7.0,19.0,46,0.00,,,0.00,meteohub,2013-03-24 17:57:00,
2013-03-24 14:02:00,44.4,24.4,29.84,West,279,3.0,19.0,45,0.00,,,0.00,meteohub,2013-03-24 18:02:00,
2013-03-24 14:07:00,45.0,24.4,29.84,WNW,296,8.0,19.0,44,0.00,,,0.00,meteohub,2013-03-24 18:07:00,
2013-03-24 14:12:00,44.4,23.9,29.83,West,275,14.0,19.0,44,0.00,,,0.00,meteohub,2013-03-24 18:12:00,
2013-03-24 14:17:00,44.4,24.4,29.82,North,0,13.0,19.0,45,0.00,,,0.00,meteohub,2013-03-24 18:17:00,
2013-03-24 14:22:00,44.4,23.9,29.81,NNW,333,3.0,17.0,44,0.00,,,0.00,meteohub,2013-03-24 18:22:00,
2013-03-24 14:27:00,45.0,25.0,29.81,NW,321,10.0,17.0,45,0.00,,,0.00,meteohub,2013-03-24 18:27:00,
2013-03-24 14:34:00,45.0,24.4,29.81,NW,318,8.0,17.0,44,0.00,,,0.00,meteohub,2013-03-24 18:34:00,
2013-03-24 14:39:00,45.0,24.4,29.81,NNW,329,6.0,17.0,44,0.00,,,0.00,meteohub,2013-03-24 18:39:00,
2013-03-24 14:44:00,45.0,25.0,29.81,NNW,344,11.0,17.0,45,0.00,,,0.00,meteohub,2013-03-24 18:44:00,
2013-03-24 14:49:00,44.8,23.7,29.80,NW,310,8.0,17.0,43,0.00,,,0.00,meteohub,2013-03-24 18:49:00,
2013-03-24 14:54:00,45.1,24.4,29.80,NNW,339,11.0,15.0,44,0.00,,,0.00,meteohub,2013-03-24 18:54:00,
2013-03-24 14:59:00,45.1,24.4,29.80,NNW,339,8.0,15.0,44,0.00,,,0.00,meteohub,2013-03-24 18:59:00,
2013-03-24 15:04:00,45.0,24.4,29.79,North,349,8.0,15.0,44,0.00,,,0.00,meteohub,2013-03-24 19:04:00,
2013-03-24 15:09:00,45.3,24.1,29.79,NW,306,8.0,15.0,43,0.00,,,0.00,meteohub,2013-03-24 19:09:00,
2013-03-24 15:14:00,45.3,24.1,29.79,WNW,302,6.0,15.0,43,0.00,,,0.00,meteohub,2013-03-24 19:14:00,
2013-03-24 15:19:00,45.3,24.1,29.78,NW,306,5.0,14.0,43,0.00,,,0.00,meteohub,2013-03-24 19:19:00,
2013-03-24 15:24:00,45.7,24.4,29.78,NNW,327,6.0,14.0,43,0.00,,,0.00,meteohub,2013-03-24 19:24:00,
2013-03-24 15:29:00,45.3,24.1,29.78,NNW,344,8.0,14.0,43,0.00,,,0.00,meteohub,2013-03-24 19:29:00,
2013-03-24 15:34:00,45.0,24.4,29.78,North,355,12.0,14.0,44,0.00,,,0.00,meteohub,2013-03-24 19:34:00,
2013-03-24 15:39:00,45.0,24.4,29.77,NNW,340,10.0,14.0,44,0.00,,,0.00,meteohub,2013-03-24 19:39:00,
2013-03-24 15:44:00,45.1,25.0,29.77,NNE,16,13.0,14.0,45,0.00,,,0.00,meteohub,2013-03-24 19:44:00,
2013-03-24 15:49:00,45.1,23.9,29.77,NW,312,9.0,14.0,43,0.00,,,0.00,meteohub,2013-03-24 19:49:00,
2013-03-24 15:54:00,45.3,23.5,29.77,NNW,327,4.0,14.0,42,0.00,,,0.00,meteohub,2013-03-24 19:54:00,
2013-03-24 15:59:00,45.5,23.7,29.77,NW,319,6.0,14.0,42,0.00,,,0.00,meteohub,2013-03-24 19:59:00,
2013-03-24 16:04:00,45.9,24.6,29.76,NW,319,5.0,14.0,43,0.00,,,0.00,meteohub,2013-03-24 20:04:00,
2013-03-24 16:09:00,45.9,25.2,29.76,North,355,12.0,14.0,44,0.00,,,0.00,meteohub,2013-03-24 20:09:00,
2013-03-24 16:14:00,45.3,24.6,29.76,North,355,11.0,14.0,44,0.00,,,0.00,meteohub,2013-03-24 20:14:00,
2013-03-24 16:19:00,45.1,25.0,29.76,North,355,8.0,14.0,45,0.00,,,0.00,meteohub,2013-03-24 20:19:00,
2013-03-24 16:24:00,45.3,25.7,29.76,NNE,15,13.0,13.0,46,0.00,,,0.00,meteohub,2013-03-24 20:24:00,
2013-03-24 16:29:00,45.0,25.0,29.76,North,9,12.0,13.0,45,0.00,,,0.00,meteohub,2013-03-24 20:29:00,
2013-03-24 16:34:00,45.0,25.3,29.76,North,5,12.0,13.0,46,0.00,,,0.00,meteohub,2013-03-24 20:34:00,
2013-03-24 16:39:00,45.0,26.4,29.76,NNE,13,4.0,13.0,48,0.00,,,0.00,meteohub,2013-03-24 20:39:00,
2013-03-24 16:44:00,45.1,24.4,29.75,North,351,8.0,13.0,44,0.00,,,0.00,meteohub,2013-03-24 20:44:00,
2013-03-24 16:49:00,45.3,24.6,29.75,North,355,11.0,13.0,44,0.00,,,0.00,meteohub,2013-03-24 20:49:00,
2013-03-24 16:54:00,45.3,24.6,29.75,North,355,4.0,15.0,44,0.00,,,0.00,meteohub,2013-03-24 20:54:00,
2013-03-24 16:59:00,45.3,24.1,29.75,NNW,338,8.0,15.0,43,0.00,,,0.00,meteohub,2013-03-24 20:59:00,
2013-03-24 17:04:00,45.1,23.9,29.75,NNW,338,3.0,15.0,43,0.00,,,0.00,meteohub,2013-03-24 21:04:00,
2013-03-24 17:09:00,45.1,24.4,29.75,North,350,8.0,15.0,44,0.00,,,0.00,meteohub,2013-03-24 21:09:00,
2013-03-24 17:15:00,45.0,25.0,29.75,North,350,9.0,15.0,45,0.00,,,0.00,meteohub,2013-03-24 21:15:00,
2013-03-24 17:20:00,45.1,24.4,29.75,North,350,5.0,15.0,44,0.00,,,0.00,meteohub,2013-03-24 21:20:00,
2013-03-24 17:25:00,45.1,25.5,29.75,North,350,4.0,11.0,46,0.00,,,0.00,meteohub,2013-03-24 21:25:00,
2013-03-24 17:30:00,45.0,24.4,29.75,North,350,5.0,11.0,44,0.00,,,0.00,meteohub,2013-03-24 21:30:00,
2013-03-24 17:35:00,45.0,25.3,29.75,North,355,1.0,11.0,46,0.00,,,0.00,meteohub,2013-03-24 21:35:00,
2013-03-24 17:40:00,45.1,24.4,29.75,North,355,1.0,11.0,44,0.00,,,0.00,meteohub,2013-03-24 21:40:00,
2013-03-24 17:45:00,45.1,25.0,29.75,North,355,1.0,11.0,45,0.00,,,0.00,meteohub,2013-03-24 21:45:00,
2013-03-24 17:50:00,45.1,25.0,29.75,North,355,3.0,11.0,45,0.00,,,0.00,meteohub,2013-03-24 21:50:00,
2013-03-24 17:55:00,45.1,25.0,29.75,North,355,1.0,7.0,45,0.00,,,0.00,meteohub,2013-03-24 21:55:00,
2013-03-24 18:00:00,45.0,28.9,29.75,North,5,5.0,7.0,53,0.00,,,0.00,meteohub,2013-03-24 22:00:00,
2013-03-24 18:05:00,44.1,30.7,29.75,North,5,3.0,7.0,59,0.00,,,0.00,meteohub,2013-03-24 22:05:00,
2013-03-24 18:10:00,43.3,31.3,29.76,North,5,7.0,7.0,62,0.00,,,0.00,meteohub,2013-03-24 22:10:00,
2013-03-24 18:15:00,42.6,32.0,29.76,North,5,9.0,9.0,66,0.00,,,0.00,meteohub,2013-03-24 22:15:00,
2013-03-24 18:20:00,41.9,31.8,29.75,South,171,12.0,12.0,67,0.00,,,0.00,meteohub,2013-03-24 22:20:00,
2013-03-24 18:25:00,41.4,31.6,29.76,South,174,7.0,7.0,68,0.00,,,0.00,meteohub,2013-03-24 22:25:00,
2013-03-24 18:30:00,41.2,31.8,29.76,South,174,8.0,15.0,69,0.00,,,0.00,meteohub,2013-03-24 22:30:00,
2013-03-24 18:35:00,40.8,31.5,29.76,South,179,12.0,15.0,69,0.00,,,0.00,meteohub,2013-03-24 22:35:00,
2013-03-24 18:40:00,40.6,30.9,29.76,South,188,8.0,15.0,68,0.00,,,0.00,meteohub,2013-03-24 22:40:00,
2013-03-24 18:45:00,40.6,30.9,29.76,South,188,9.0,15.0,68,0.00,,,0.00,meteohub,2013-03-24 22:45:00,
2013-03-24 18:50:00,40.5,31.1,29.75,South,188,6.0,15.0,69,0.00,,,0.00,meteohub,2013-03-24 22:50:00,
2013-03-24 18:55:00,40.5,30.4,29.75,South,188,6.0,15.0,67,0.00,,,0.00,meteohub,2013-03-24 22:55:00,
2013-03-24 19:00:00,40.5,30.7,29.75,South,188,7.0,15.0,68,0.00,,,0.00,meteohub,2013-03-24 23:00:00,
2013-03-24 19:05:00,40.5,30.7,29.75,South,188,8.0,15.0,68,0.00,,,0.00,meteohub,2013-03-24 23:05:00,
2013-03-24 19:10:00,40.3,30.9,29.75,South,190,7.0,11.0,69,0.00,,,0.00,meteohub,2013-03-24 23:10:00,
2013-03-24 19:15:00,40.3,30.6,29.75,SSW,196,8.0,11.0,68,0.00,,,0.00,meteohub,2013-03-24 23:15:00,
2013-03-24 19:20:00,40.3,30.6,29.75,SSW,207,11.0,11.0,68,0.00,,,0.00,meteohub,2013-03-24 23:20:00,
2013-03-24 19:25:00,40.3,30.6,29.75,SSW,208,9.0,11.0,68,0.00,,,0.00,meteohub,2013-03-24 23:25:00,
2013-03-24 19:30:00,40.3,30.2,29.75,SSW,208,9.0,11.0,67,0.00,,,0.00,meteohub,2013-03-24 23:30:00,
2013-03-24 19:35:00,40.3,30.9,29.76,SSW,209,8.0,11.0,69,0.00,,,0.00,meteohub,2013-03-24 23:35:00,
2013-03-24 19:40:00,40.3,30.9,29.76,SSW,211,10.0,11.0,69,0.00,,,0.00,meteohub,2013-03-24 23:40:00,
2013-03-24 19:45:00,40.3,30.9,29.77,SSW,210,12.0,12.0,69,0.00,,,0.00,meteohub,2013-03-24 23:45:00,
2013-03-24 19:50:00,40.5,31.5,29.78,SSW,211,14.0,14.0,70,0.00,,,0.00,meteohub,2013-03-24 23:50:00,
2013-03-24 19:55:00,40.5,31.5,29.78,SSW,210,11.0,13.0,70,0.00,,,0.00,meteohub,2013-03-24 23:55:00,
2013-03-24 20:00:00,40.5,31.5,29.78,SSW,208,10.0,13.0,70,0.00,,,0.00,meteohub,2013-03-25 00:00:00,
2013-03-24 20:05:00,40.5,30.7,29.78,SSW,209,14.0,14.0,68,0.00,,,0.00,meteohub,2013-03-25 00:05:00,
2013-03-24 20:10:00,40.5,30.7,29.79,SSW,211,11.0,13.0,68,0.00,,,0.00,meteohub,2013-03-25 00:10:00,
2013-03-24 20:15:00,40.5,31.5,29.79,SSW,211,8.0,14.0,70,0.00,,,0.00,meteohub,2013-03-25 00:15:00,
2013-03-24 20:20:00,40.5,31.1,29.79,SSW,211,8.0,14.0,69,0.00,,,0.00,meteohub,2013-03-25 00:20:00,
2013-03-24 20:25:00,40.5,31.1,29.79,SSW,209,9.0,14.0,69,0.00,,,0.00,meteohub,2013-03-25 00:25:00,
2013-03-24 20:30:00,40.5,31.8,29.79,SSW,207,9.0,14.0,71,0.00,,,0.00,meteohub,2013-03-25 00:30:00,
2013-03-24 20:35:00,40.5,31.5,29.79,SSW,207,5.0,12.0,70,0.00,,,0.00,meteohub,2013-03-25 00:35:00,
2013-03-24 20:40:00,40.5,31.5,29.79,SSW,207,8.0,12.0,70,0.00,,,0.00,meteohub,2013-03-25 00:40:00,
2013-03-24 20:45:00,40.3,31.3,29.79,SSW,207,5.0,12.0,70,0.00,,,0.00,meteohub,2013-03-25 00:45:00,
2013-03-24 20:50:00,40.3,31.3,29.79,SSW,207,6.0,12.0,70,0.00,,,0.00,meteohub,2013-03-25 00:50:00,
2013-03-24 20:56:00,40.3,30.9,29.79,SSW,207,8.0,12.0,69,0.00,,,0.00,meteohub,2013-03-25 00:56:00,
2013-03-24 21:01:00,40.3,31.3,29.80,SSW,207,3.0,9.0,70,0.00,,,0.00,meteohub,2013-03-25 01:01:00,
2013-03-24 21:06:00,40.3,31.3,29.80,SSW,207,3.0,9.0,70,0.00,,,0.00,meteohub,2013-03-25 01:06:00,
2013-03-24 21:11:00,40.3,31.3,29.80,SSW,207,8.0,9.0,70,0.00,,,0.00,meteohub,2013-03-25 01:11:00,
2013-03-24 21:16:00,40.3,30.9,29.80,SSW,207,7.0,9.0,69,0.00,,,0.00,meteohub,2013-03-25 01:16:00,
2013-03-24 21:21:00,40.5,31.8,29.79,SSW,207,5.0,9.0,71,0.00,,,0.00,meteohub,2013-03-25 01:21:00,
2013-03-24 21:26:00,40.3,31.3,29.79,SSW,207,6.0,9.0,70,0.00,,,0.00,meteohub,2013-03-25 01:26:00,
2013-03-24 21:31:00,40.3,30.9,29.79,SSW,207,5.0,9.0,69,0.00,,,0.00,meteohub,2013-03-25 01:31:00,
2013-03-24 21:36:00,40.3,30.9,29.79,SSW,207,6.0,9.0,69,0.00,,,0.00,meteohub,2013-03-25 01:36:00,
2013-03-24 21:41:00,40.3,31.3,29.79,SSW,207,3.0,8.0,70,0.00,,,0.00,meteohub,2013-03-25 01:41:00,
2013-03-24 21:46:00,40.3,31.3,29.79,SSW,207,5.0,8.0,70,0.00,,,0.00,meteohub,2013-03-25 01:46:00,
2013-03-24 21:51:00,40.3,31.3,29.80,SSW,207,6.0,8.0,70,0.00,,,0.00,meteohub,2013-03-25 01:51:00,
2013-03-24 21:56:00,40.3,31.3,29.79,SSW,207,5.0,8.0,70,0.00,,,0.00,meteohub,2013-03-25 01:56:00,
2013-03-24 22:01:00,40.3,31.6,29.80,SSW,207,4.0,8.0,71,0.00,,,0.00,meteohub,2013-03-25 02:01:00,
2013-03-24 22:07:00,40.3,31.6,29.80,SSW,207,3.0,8.0,71,0.00,,,0.00,meteohub,2013-03-25 02:07:00,
2013-03-24 22:12:00,40.1,30.7,29.80,SSW,207,3.0,8.0,69,0.00,,,0.00,meteohub,2013-03-25 02:12:00,
2013-03-24 22:17:00,39.9,30.6,29.80,SSW,207,1.0,6.0,69,0.00,,,0.00,meteohub,2013-03-25 02:17:00,
2013-03-24 22:22:00,39.9,30.2,29.80,SSW,207,3.0,6.0,68,0.00,,,0.00,meteohub,2013-03-25 02:22:00,
2013-03-24 22:27:00,39.9,30.6,29.80,SSW,207,2.0,6.0,69,0.00,,,0.00,meteohub,2013-03-25 02:27:00,
2013-03-24 22:32:00,39.9,30.6,29.80,SSW,207,3.0,6.0,69,0.00,,,0.00,meteohub,2013-03-25 02:32:00,
2013-03-24 22:37:00,39.9,30.6,29.80,SSW,207,2.0,4.0,69,0.00,,,0.00,meteohub,2013-03-25 02:37:00,
2013-03-24 22:42:00,39.9,30.9,29.80,SSW,207,3.0,4.0,70,0.00,,,0.00,meteohub,2013-03-25 02:42:00,
2013-03-24 22:47:00,39.9,31.3,29.80,SSW,207,6.0,6.0,71,0.00,,,0.00,meteohub,2013-03-25 02:47:00,
2013-03-24 22:52:00,40.1,31.5,29.80,SSW,205,7.0,7.0,71,0.00,,,0.00,meteohub,2013-03-25 02:52:00,
2013-03-24 22:57:00,40.1,31.8,29.80,SSW,205,7.0,7.0,72,0.00,,,0.00,meteohub,2013-03-25 02:57:00,
2013-03-24 23:02:00,40.3,32.0,29.80,SSW,200,5.0,7.0,72,0.00,,,0.00,meteohub,2013-03-25 03:02:00,
2013-03-24 23:07:00,40.3,31.6,29.79,SSW,196,5.0,7.0,71,0.00,,,0.00,meteohub,2013-03-25 03:07:00,
2013-03-24 23:12:00,40.1,31.5,29.79,SSW,196,7.0,7.0,71,0.00,,,0.00,meteohub,2013-03-25 03:12:00,
2013-03-24 23:17:00,40.1,31.5,29.79,SSW,196,6.0,7.0,71,0.00,,,0.00,meteohub,2013-03-25 03:17:00,
2013-03-24 23:22:00,39.9,31.6,29.79,SSW,196,5.0,8.0,72,0.00,,,0.00,meteohub,2013-03-25 03:22:00,
2013-03-24 23:27:00,39.9,31.6,29.79,SSW,196,4.0,8.0,72,0.00,,,0.00,meteohub,2013-03-25 03:27:00,
2013-03-24 23:32:00,39.9,31.3,29.79,SSW,196,4.0,8.0,71,0.00,,,0.00,meteohub,2013-03-25 03:32:00,
2013-03-24 23:38:00,39.9,31.6,29.79,SSW,196,3.0,8.0,72,0.00,,,0.00,meteohub,2013-03-25 03:38:00,
2013-03-24 23:43:00,39.9,31.6,29.78,SSW,196,4.0,7.0,72,0.00,,,0.00,meteohub,2013-03-25 03:43:00,
2013-03-24 23:48:00,39.9,32.0,29.78,SSW,196,0.0,7.0,73,0.00,,,0.00,meteohub,2013-03-25 03:48:00,
2013-03-24 23:53:00,39.9,31.6,29.78,SSW,196,3.0,7.0,72,0.00,,,0.00,meteohub,2013-03-25 03:53:00,
2013-03-24 23:58:00,39.9,32.0,29.78,SSW,196,2.0,5.0,73,0.00,,,0.00,meteohub,2013-03-25 03:58:00,